Overview Statistics Trail Chart Weather Telemetry Raw packets
 

This is the latest recevied weather packets stored in our database for station/object DL2AKT-20. If no packets are shown the sender has not sent any weather packets the latest 10 day(s).

<< 21 22 23 24 25 26 27 >>
Time Temp. Humidity Pressure Rain* Wind** Luminosity Snow
1777699167 16.11° C 38% 1026.3 hPa - - - -
1777698267 15.56° C 38% 1026.3 hPa - - - -
1777697366 15° C 38% 1026.2 hPa - - - -
1777696466 15° C 37% 1026.2 hPa - - - -
1777695566 15° C 38% 1026.2 hPa - - - -
1777694666 15° C 37% 1026.2 hPa - - - -
1777693765 15° C 37% 1026.4 hPa - - - -
1777692865 15.56° C 37% 1026.3 hPa - - - -
1777691965 15.56° C 37% 1026.4 hPa - - - -
1777691065 15.56° C 37% 1026.6 hPa - - - -
1777690165 15.56° C 37% 1026.7 hPa - - - -
1777689265 16.11° C 37% 1026.7 hPa - - - -
1777688365 16.11° C 37% 1026.7 hPa - - - -
1777687465 15.56° C 38% 1026.8 hPa - - - -
1777686565 16.11° C 38% 1026.8 hPa - - - -
1777685665 16.11° C 38% 1026.9 hPa - - - -
1777684764 16.11° C 38% 1027 hPa - - - -
1777683863 16.11° C 39% 1027.1 hPa - - - -
1777682971 16.11° C 39% 1027.1 hPa - - - -
1777682071 16.11° C 39% 1027.2 hPa - - - -
1777681171 16.11° C 39% 1027.3 hPa - - - -
1777680271 16.11° C 39% 1027.4 hPa - - - -
1777679371 16.11° C 38% 1027.4 hPa - - - -
1777678471 16.67° C 38% 1027.5 hPa - - - -
1777677571 16.67° C 38% 1027.7 hPa - - - -

* Rain since midnight (hover to see other rain measurements)
** Current wind speed in m/s (hover to see current wind gust speed)